Weather in Shubin

Russia / Republic of Crimea     45°16′24″N   35°12′39″E
temp.,
°C
wind,
m/s
gust,
m/s
humid.,
%
clouds,
%
prec.,
mm/h
press.,
hPa
HPBL,
m
28 february, sun
sun2800:00+6nnw6990100 2.9 1018547
03:00+6nnw6881100 3.3 1018738
06:00+5nw7980100 0.1 1019717
09:00+4nw798299 0.3 1020816
12:00+4nw688698 0.4 1021662
15:00+6nnw687699 0.8 1021931
18:00+5nnw687490 0.4 1022873
21:00+4nw588195 0.6 1023583
1 march, mon
mon100:00+4wnw5687100 0.4 1024517
03:00+3w5687100 0.5 1024448
06:00+2w368895 0.0 1024282
09:00+3wnw568383 0.1 1025504
12:00+5nnw446545 0.1 1026905
15:00+4nne447865 0.1 1026508
18:00+3nne347792 0.0 1027502
21:00+2n237956 0.0 1029211
2 march, tue
tue200:00+2nnw23810 0.0 1030198
03:00+2wnw357944 0.1 1030237
06:00+3nw346999 0.0 1030443
09:00+3wnw446598 0.0 1030667
12:00+5wnw445411 0.0 10301116
15:00+6wnw565534 0.0 10291249
18:00+6w486060 0.0 1026812
21:00+3wsw7117160 0.0 1026563
3 march, wed
wed300:00+2wsw714760 0.0 1024595
03:00+4wsw9177821 0.0 1021664
06:00+5wnw9128177 0.0 1020718
09:00+5nw9117688 0.0 1022981
12:00+5nnw81063100 0.1 10241407
15:00+5n796283 0.1 10251212
18:00+5n466621 0.0 1026598
21:00+3nw117211 0.0 1028127
4 march, thu
thu400:00+3w34750 0.0 1028124
03:00+2w34770 0.0 1028109
06:00+1wsw22730 0.0 102773
09:00+4ssw23600 0.0 1027152
12:00+8wsw24470 0.0 1025965
15:00+9ssw55530 0.0 1024980
18:00+7s68640 0.0 1022360
21:00+5ssw48710 0.0 1021225